owner,sensor,date,latitude,longitude,vertical_datum,direction_of_sea_water_velocity,sea_water_speed,upward_sea_water_velocity,qcFlag 
TABS,ioos:station:wmo:42049:1,2009-03-01T00:00:00Z,28.3507,-96.0058,2.0,228.7809661,54.25420352,-99999.0,'11111222,11111222,99999999' 
TABS,ioos:station:wmo:42049:1,2009-03-01T00:30:00Z,28.3507,-96.0058,2.0,231.0733794,54.73324858,-99999.0,'11111222,11111222,99999999' 
TABS,ioos:station:wmo:42049:1,2009-03-01T01:00:00Z,28.3507,-96.0058,2.0,230.3602964,52.52735097,-99999.0,'11111222,11111222,99999999' 
TABS,ioos:station:wmo:42049:1,2009-03-01T01:30:00Z,28.3507,-96.0058,2.0,235.3400898,47.86361144,-99999.0,'11111222,11111222,99999999' 
TABS,ioos:station:wmo:42049:1,2009-03-01T02:00:00Z,28.3507,-96.0058,2.0,233.1376873,43.40800041,-99999.0,'11111222,11111222,99999999' 
TABS,ioos:station:wmo:42049:1,2009-03-01T02:30:00Z,28.3507,-96.0058,2.0,231.4298425,43.75525683,-99999.0,'11111222,11111222,99999999' 
TABS,ioos:station:wmo:42049:1,2009-03-01T03:00:00Z,28.3507,-96.0058,2.0,233.6855834,38.34780437,-99999.0,'11111222,11111222,99999999' 
TABS,ioos:station:wmo:42049:1,2009-03-01T03:30:00Z,28.3507,-96.0058,2.0,228.1023305,48.33796438,-99999.0,'11111222,11111222,99999999' 
TABS,ioos:station:wmo:42049:1,2009-03-01T04:00:00Z,28.3507,-96.0058,2.0,239.0922473,40.10496353,-99999.0,'11111222,11111222,99999999' 
TABS,ioos:station:wmo:42049:1,2009-03-01T04:30:00Z,28.3507,-96.0058,2.0,229.6730145,43.22063627,-99999.0,'11111222,11111222,99999999' 
TABS,ioos:station:wmo:42049:1,2009-03-01T05:00:00Z,28.3507,-96.0058,2.0,226.9049754,38.49496201,-99999.0,'11111222,11111222,99999999' 
TABS,ioos:station:wmo:42049:1,2009-03-01T05:30:00Z,28.3507,-96.0058,2.0,225.5805598,41.84872997,-99999.0,'11111222,11111222,99999999' 
TABS,ioos:station:wmo:42049:1,2009-03-01T06:00:00Z,28.3507,-96.0058,2.0,229.9724721,34.42425308,-99999.0,'11111222,11111222,99999999' 
TABS,ioos:station:wmo:42049:1,2009-03-01T06:30:00Z,28.3507,-96.0058,2.0,228.0949813,43.86926601,-99999.0,'11111222,11111222,99999999' 
TABS,ioos:station:wmo:42049:1,2009-03-01T07:00:00Z,28.3507,-96.0058,2.0,230.8012576,37.21472827,-99999.0,'11111222,11111222,99999999' 
TABS,ioos:station:wmo:42049:1,2009-03-01T07:30:00Z,28.3507,-96.0058,2.0,226.9573914,38.91358632,-99999.0,'11111222,11111222,99999999' 
TABS,ioos:station:wmo:42049:1,2009-03-01T08:00:00Z,28.3507,-96.0058,2.0,240.3009937,36.89662451,-99999.0,'11111222,11111222,99999999' 
TABS,ioos:station:wmo:42049:1,2009-03-01T08:30:00Z,28.3507,-96.0058,2.0,239.4109156,33.01418483,-99999.0,'11111222,11111222,99999999' 
TABS,ioos:station:wmo:42049:1,2009-03-01T09:00:00Z,28.3507,-96.0058,2.0,230.384427,30.06450565,-99999.0,'11111222,11111222,99999999' 
TABS,ioos:station:wmo:42049:1,2009-03-01T09:30:00Z,28.3507,-96.0058,2.0,229.8567496,33.48862643,-99999.0,'11111222,11111222,99999999' 
TABS,ioos:station:wmo:42049:1,2009-03-01T10:00:00Z,28.3507,-96.0058,2.0,228.3396898,30.58482303,-99999.0,'11111222,11111222,99999999' 
TABS,ioos:station:wmo:42049:1,2009-03-01T10:30:00Z,28.3507,-96.0058,2.0,232.7230887,34.09485885,-99999.0,'11111222,11111222,99999999' 
TABS,ioos:station:wmo:42049:1,2009-03-01T11:00:00Z,28.3507,-96.0058,2.0,230.0399862,33.32043817,-99999.0,'11111222,11111222,99999999' 
TABS,ioos:station:wmo:42049:1,2009-03-01T11:30:00Z,28.3507,-96.0058,2.0,226.3235077,26.93381518,-99999.0,'11111222,11111222,99999999' 
TABS,ioos:station:wmo:42049:1,2009-03-01T12:00:00Z,28.3507,-96.0058,2.0,223.5699733,21.25517584,-99999.0,'11111222,11111222,99999999' 
TABS,ioos:station:wmo:42049:1,2009-03-01T12:30:00Z,28.3507,-96.0058,2.0,224.0867578,21.74629394,-99999.0,'11111222,11111222,99999999' 
TABS,ioos:station:wmo:42049:1,2009-03-01T13:00:00Z,28.3507,-96.0058,2.0,229.2360692,18.76130592,-99999.0,'11111222,11111222,99999999' 
TABS,ioos:station:wmo:42049:1,2009-03-01T13:30:00Z,28.3507,-96.0058,2.0,230.4717396,18.7601839,-99999.0,'11111222,11111222,99999999' 
TABS,ioos:station:wmo:42049:1,2009-03-01T14:00:00Z,28.3507,-96.0058,2.0,224.0731509,20.98967365,-99999.0,'11111222,11111222,99999999' 
TABS,ioos:station:wmo:42049:1,2009-03-01T14:30:00Z,28.3507,-96.0058,2.0,229.5633828,23.72795187,-99999.0,'11111222,11111222,99999999' 
TABS,ioos:station:wmo:42049:1,2009-03-01T15:00:00Z,28.3507,-96.0058,2.0,225.0155513,25.53362685,-99999.0,'11111222,11111222,99999999' 
TABS,ioos:station:wmo:42049:1,2009-03-01T15:30:00Z,28.3507,-96.0058,2.0,224.700205,25.70368262,-99999.0,'11111222,11111222,99999999' 
TABS,ioos:station:wmo:42049:1,2009-03-01T16:00:00Z,28.3507,-96.0058,2.0,220.2852992,23.22926602,-99999.0,'11111222,11111222,99999999' 
TABS,ioos:station:wmo:42049:1,2009-03-01T16:30:00Z,28.3507,-96.0058,2.0,225.1274539,22.19613705,-99999.0,'11111222,11111222,99999999' 
TABS,ioos:station:wmo:42049:1,2009-03-01T17:00:00Z,28.3507,-96.0058,2.0,216.0166271,24.18267975,-99999.0,'11111222,11111222,99999999' 
TABS,ioos:station:wmo:42049:1,2009-03-01T17:30:00Z,28.3507,-96.0058,2.0,221.8133188,24.04344609,-99999.0,'11111222,11111222,99999999' 
TABS,ioos:station:wmo:42049:1,2009-03-01T18:00:00Z,28.3507,-96.0058,2.0,213.907898,20.39924754,-99999.0,'11111222,11111222,99999999' 
TABS,ioos:station:wmo:42049:1,2009-03-01T18:30:00Z,28.3507,-96.0058,2.0,215.168964,30.19129842,-99999.0,'11111222,11111222,99999999' 
TABS,ioos:station:wmo:42049:1,2009-03-01T19:00:00Z,28.3507,-96.0058,2.0,211.6751842,25.40433034,-99999.0,'11111222,11111222,99999999' 
TABS,ioos:station:wmo:42049:1,2009-03-01T19:30:00Z,28.3507,-96.0058,2.0,214.2041123,23.48140541,-99999.0,'11111222,11111222,99999999' 
TABS,ioos:station:wmo:42049:1,2009-03-01T20:00:00Z,28.3507,-96.0058,2.0,218.7824969,25.46419054,-99999.0,'11111222,11111222,99999999' 
TABS,ioos:station:wmo:42049:1,2009-03-01T20:30:00Z,28.3507,-96.0058,2.0,218.7863913,23.97741646,-99999.0,'11111222,11111222,99999999' 
TABS,ioos:station:wmo:42049:1,2009-03-01T21:00:00Z,28.3507,-96.0058,2.0,211.6848134,23.70298293,-99999.0,'11111222,11111222,99999999' 
TABS,ioos:station:wmo:42049:1,2009-03-01T21:30:00Z,28.3507,-96.0058,2.0,202.5633743,30.57001472,-99999.0,'11111222,11111222,99999999' 
TABS,ioos:station:wmo:42049:1,2009-03-01T22:00:00Z,28.3507,-96.0058,2.0,203.5898192,24.21347146,-99999.0,'11111222,11111222,99999999' 
TABS,ioos:station:wmo:42049:1,2009-03-01T22:30:00Z,28.3507,-96.0058,2.0,205.0876198,28.27776865,-99999.0,'11111222,11111222,99999999' 
TABS,ioos:station:wmo:42049:1,2009-03-01T23:00:00Z,28.3507,-96.0058,2.0,208.7310698,26.85648153,-99999.0,'11111222,11111222,99999999' 
TABS,ioos:station:wmo:42049:1,2009-03-01T23:30:00Z,28.3507,-96.0058,2.0,207.3439098,24.66611035,-99999.0,'11111222,11111222,99999999' 
TABS,ioos:station:wmo:42049:1,2009-03-02T00:00:00Z,28.3507,-96.0058,2.0,219.1837568,23.72534931,-99999.0,'11111222,11111222,99999999' 
TABS,ioos:station:wmo:42049:1,2009-03-02T00:30:00Z,28.3507,-96.0058,2.0,216.187122,19.47738175,-99999.0,'11111222,11111222,99999999' 
TABS,ioos:station:wmo:42049:1,2009-03-02T01:00:00Z,28.3507,-96.0058,2.0,209.7200491,23.15604673,-99999.0,'11111222,11111222,99999999' 
TABS,ioos:station:wmo:42049:1,2009-03-02T01:30:00Z,28.3507,-96.0058,2.0,207.8725645,21.94601558,-99999.0,'11111222,11111222,99999999' 
TABS,ioos:station:wmo:42049:1,2009-03-02T02:00:00Z,28.3507,-96.0058,2.0,205.5485544,22.18975665,-99999.0,'11111222,11111222,99999999' 
TABS,ioos:station:wmo:42049:1,2009-03-02T02:30:00Z,28.3507,-96.0058,2.0,209.14016,22.69217707,-99999.0,'11111222,11111222,99999999' 
TABS,ioos:station:wmo:42049:1,2009-03-02T03:00:00Z,28.3507,-96.0058,2.0,212.6540456,22.55502161,-99999.0,'11111222,11111222,99999999' 
TABS,ioos:station:wmo:42049:1,2009-03-02T03:30:00Z,28.3507,-96.0058,2.0,211.1542767,21.62952149,-99999.0,'11111222,11111222,99999999' 
TABS,ioos:station:wmo:42049:1,2009-03-02T04:00:00Z,28.3507,-96.0058,2.0,218.6462547,20.25573746,-99999.0,'11111222,11111222,99999999' 
TABS,ioos:station:wmo:42049:1,2009-03-02T04:30:00Z,28.3507,-96.0058,2.0,217.2661043,20.80849826,-99999.0,'11111222,11111222,99999999' 
TABS,ioos:station:wmo:42049:1,2009-03-02T05:00:00Z,28.3507,-96.0058,2.0,216.360674,18.68873725,-99999.0,'11111222,11111222,99999999' 
TABS,ioos:station:wmo:42049:1,2009-03-02T05:30:00Z,28.3507,-96.0058,2.0,229.3092213,18.81982465,-99999.0,'11111222,11111222,99999999' 
TABS,ioos:station:wmo:42049:1,2009-03-02T06:00:00Z,28.3507,-96.0058,2.0,214.560956,24.62598831,-99999.0,'11111222,11111222,99999999' 
TABS,ioos:station:wmo:42049:1,2009-03-02T06:30:00Z,28.3507,-96.0058,2.0,230.452442,24.70496711,-99999.0,'11111222,11111222,99999999' 
TABS,ioos:station:wmo:42049:1,2009-03-02T07:00:00Z,28.3507,-96.0058,2.0,227.3834503,23.29103905,-99999.0,'11111222,11111222,99999999' 
TABS,ioos:station:wmo:42049:1,2009-03-02T07:30:00Z,28.3507,-96.0058,2.0,230.7128091,15.84009154,-99999.0,'11111222,11111222,99999999' 
TABS,ioos:station:wmo:42049:1,2009-03-02T08:00:00Z,28.3507,-96.0058,2.0,242.3049092,13.38323205,-99999.0,'11111222,11111222,99999999' 
TABS,ioos:station:wmo:42049:1,2009-03-02T08:30:00Z,28.3507,-96.0058,2.0,241.3470834,14.11895889,-99999.0,'11111222,11111222,99999999' 
TABS,ioos:station:wmo:42049:1,2009-03-02T09:00:00Z,28.3507,-96.0058,2.0,247.6724365,19.42640728,-99999.0,'11111222,11111222,99999999' 
TABS,ioos:station:wmo:42049:1,2009-03-02T09:30:00Z,28.3507,-96.0058,2.0,241.1366397,13.94191522,-99999.0,'11111222,11111222,99999999' 
TABS,ioos:station:wmo:42049:1,2009-03-02T10:00:00Z,28.3507,-96.0058,2.0,260.3188029,10.34734749,-99999.0,'11111222,11111222,99999999' 
TABS,ioos:station:wmo:42049:1,2009-03-02T10:30:00Z,28.3507,-96.0058,2.0,269.9514315,11.9000042,-99999.0,'11111222,11111222,99999999' 
TABS,ioos:station:wmo:42049:1,2009-03-02T11:00:00Z,28.3507,-96.0058,2.0,253.7033509,7.626401511,-99999.0,'11133222,11111222,99999999' 
TABS,ioos:station:wmo:42049:1,2009-03-02T11:30:00Z,28.3507,-96.0058,2.0,281.7608732,5.985649505,-99999.0,'11133222,11111222,99999999' 
TABS,ioos:station:wmo:42049:1,2009-03-02T12:00:00Z,28.3507,-96.0058,2.0,269.8098591,6.040033112,-99999.0,'11133222,11111222,99999999' 
TABS,ioos:station:wmo:42049:1,2009-03-02T12:30:00Z,28.3507,-96.0058,2.0,281.0799939,3.902742625,-99999.0,'11133222,11111222,99999999' 
TABS,ioos:station:wmo:42049:1,2009-03-02T13:00:00Z,28.3507,-96.0058,2.0,225.8340279,2.913588852,-99999.0,'11133222,11111222,99999999' 
TABS,ioos:station:wmo:42049:1,2009-03-02T13:30:00Z,28.3507,-96.0058,2.0,194.830894,6.992975046,-99999.0,'11133222,11111222,99999999' 
TABS,ioos:station:wmo:42049:1,2009-03-02T14:00:00Z,28.3507,-96.0058,2.0,204.0421141,4.369038796,-99999.0,'11133222,11111222,99999999' 
TABS,ioos:station:wmo:42049:1,2009-03-02T14:30:00Z,28.3507,-96.0058,2.0,190.7913351,7.370345989,-99999.0,'11133222,11111222,99999999' 
TABS,ioos:station:wmo:42049:1,2009-03-02T15:00:00Z,28.3507,-96.0058,2.0,201.0757454,7.480407743,-99999.0,'11133222,11111222,99999999' 
TABS,ioos:station:wmo:42049:1,2009-03-02T15:30:00Z,28.3507,-96.0058,2.0,196.43521,9.154042823,-99999.0,'11133222,11111222,99999999' 
TABS,ioos:station:wmo:42049:1,2009-03-02T16:00:00Z,28.3507,-96.0058,2.0,202.3611268,13.30013534,-99999.0,'11111222,11111222,99999999' 
TABS,ioos:station:wmo:42049:1,2009-03-02T16:30:00Z,28.3507,-96.0058,2.0,196.4685073,14.28609464,-99999.0,'11111222,11111222,99999999' 
TABS,ioos:station:wmo:42049:1,2009-03-02T17:00:00Z,28.3507,-96.0058,2.0,202.9750748,13.14256063,-99999.0,'11111222,11111222,99999999' 
TABS,ioos:station:wmo:42049:1,2009-03-02T17:30:00Z,28.3507,-96.0058,2.0,205.2362496,12.92347476,-99999.0,'11111222,11111222,99999999' 
TABS,ioos:station:wmo:42049:1,2009-03-02T18:00:00Z,28.3507,-96.0058,2.0,201.300583,12.96574333,-99999.0,'11111222,11111222,99999999' 
TABS,ioos:station:wmo:42049:1,2009-03-02T18:30:00Z,28.3507,-96.0058,2.0,211.4436743,16.98410139,-99999.0,'11111222,11111222,99999999' 
TABS,ioos:station:wmo:42049:1,2009-03-02T19:00:00Z,28.3507,-96.0058,2.0,204.0774358,15.14798006,-99999.0,'11111222,11111222,99999999' 
TABS,ioos:station:wmo:42049:1,2009-03-02T19:30:00Z,28.3507,-96.0058,2.0,212.7554077,15.13700763,-99999.0,'11111222,11111222,99999999' 
TABS,ioos:station:wmo:42049:1,2009-03-02T20:00:00Z,28.3507,-96.0058,2.0,232.5807047,13.77463248,-99999.0,'11111222,11111222,99999999' 
TABS,ioos:station:wmo:42049:1,2009-03-02T20:30:00Z,28.3507,-96.0058,2.0,247.7538038,15.08262908,-99999.0,'11111222,11111222,99999999' 
TABS,ioos:station:wmo:42049:1,2009-03-02T21:00:00Z,28.3507,-96.0058,2.0,244.0470155,12.13359798,-99999.0,'11111222,11111222,99999999' 
TABS,ioos:station:wmo:42049:1,2009-03-02T21:30:00Z,28.3507,-96.0058,2.0,246.5558213,10.43107856,-99999.0,'11111222,11111222,99999999' 
TABS,ioos:station:wmo:42049:1,2009-03-02T22:00:00Z,28.3507,-96.0058,2.0,251.2694271,10.43249251,-99999.0,'11111222,11111222,99999999' 
TABS,ioos:station:wmo:42049:1,2009-03-02T22:30:00Z,28.3507,-96.0058,2.0,253.632667,8.588014905,-99999.0,'11133222,11111222,99999999' 
TABS,ioos:station:wmo:42049:1,2009-03-02T23:00:00Z,28.3507,-96.0058,2.0,262.1535052,10.84149436,-99999.0,'11111222,11111222,99999999' 
TABS,ioos:station:wmo:42049:1,2009-03-02T23:30:00Z,28.3507,-96.0058,2.0,255.8085157,6.281695631,-99999.0,'11133222,11111222,99999999' 
TABS,ioos:station:wmo:42049:1,2009-03-03T00:00:00Z,28.3507,-96.0058,2.0,240.4922502,6.882746545,-99999.0,'11133222,11111222,99999999' 
TABS,ioos:station:wmo:42049:1,2009-03-03T00:30:00Z,28.3507,-96.0058,2.0,230.7336724,5.166517202,-99999.0,'11133222,11111222,99999999' 
TABS,ioos:station:wmo:42049:1,2009-03-03T01:00:00Z,28.3507,-96.0058,2.0,207.5166436,4.307261311,-99999.0,'11133222,11111222,99999999' 
TABS,ioos:station:wmo:42049:1,2009-03-03T01:30:00Z,28.3507,-96.0058,2.0,188.2711689,6.88158412,-99999.0,'11133222,11111222,99999999' 
TABS,ioos:station:wmo:42049:1,2009-03-03T02:00:00Z,28.3507,-96.0058,2.0,176.0993049,6.615323121,-99999.0,'11133222,11111222,99999999' 
TABS,ioos:station:wmo:42049:1,2009-03-03T02:30:00Z,28.3507,-96.0058,2.0,145.9726475,7.541279732,-99999.0,'11133222,11111222,99999999' 
TABS,ioos:station:wmo:42049:1,2009-03-03T03:00:00Z,28.3507,-96.0058,2.0,129.0370578,7.351258396,-99999.0,'11133222,11111222,99999999' 
TABS,ioos:station:wmo:42049:1,2009-03-03T03:30:00Z,28.3507,-96.0058,2.0,139.6202115,10.09493437,-99999.0,'11111222,11111222,99999999' 
TABS,ioos:station:wmo:42049:1,2009-03-03T04:00:00Z,28.3507,-96.0058,2.0,133.8541346,8.486978261,-99999.0,'11133222,11111222,99999999' 
TABS,ioos:station:wmo:42049:1,2009-03-03T04:30:00Z,28.3507,-96.0058,2.0,137.6697783,10.92959286,-99999.0,'11111222,11111222,99999999' 
TABS,ioos:station:wmo:42049:1,2009-03-03T05:00:00Z,28.3507,-96.0058,2.0,137.6391901,11.51684419,-99999.0,'11111222,11111222,99999999' 
TABS,ioos:station:wmo:42049:1,2009-03-03T05:30:00Z,28.3507,-96.0058,2.0,139.6295529,11.30108402,-99999.0,'11111222,11111222,99999999' 
TABS,ioos:station:wmo:42049:1,2009-03-03T06:00:00Z,28.3507,-96.0058,2.0,137.0075243,11.10131974,-99999.0,'11111222,11111222,99999999' 
TABS,ioos:station:wmo:42049:1,2009-03-03T06:30:00Z,28.3507,-96.0058,2.0,141.4085559,10.45271735,-99999.0,'11111222,11111222,99999999' 
TABS,ioos:station:wmo:42049:1,2009-03-03T07:00:00Z,28.3507,-96.0058,2.0,147.5362943,11.53208567,-99999.0,'11111222,11111222,99999999' 
TABS,ioos:station:wmo:42049:1,2009-03-03T07:30:00Z,28.3507,-96.0058,2.0,156.8526856,5.851017006,-99999.0,'11133222,11111222,99999999' 
TABS,ioos:station:wmo:42049:1,2009-03-03T08:00:00Z,28.3507,-96.0058,2.0,132.3369002,5.478923252,-99999.0,'11133222,11111222,99999999' 
TABS,ioos:station:wmo:42049:1,2009-03-03T08:30:00Z,28.3507,-96.0058,2.0,94.94595498,2.087773934,-99999.0,'11133222,11111222,99999999' 
TABS,ioos:station:wmo:42049:1,2009-03-03T09:00:00Z,28.3507,-96.0058,2.0,69.83521471,1.885576835,-99999.0,'11133222,11111222,99999999' 
TABS,ioos:station:wmo:42049:1,2009-03-03T09:30:00Z,28.3507,-96.0058,2.0,60.20681711,2.93838391,-99999.0,'11133222,11111222,99999999' 
TABS,ioos:station:wmo:42049:1,2009-03-03T10:00:00Z,28.3507,-96.0058,2.0,3.741139261,2.605551765,-99999.0,'11133222,11111222,99999999' 
TABS,ioos:station:wmo:42049:1,2009-03-03T10:30:00Z,28.3507,-96.0058,2.0,121.5347182,1.03247276,-99999.0,'11133222,11111222,99999999' 
TABS,ioos:station:wmo:42049:1,2009-03-03T11:00:00Z,28.3507,-96.0058,2.0,68.51801191,1.665713061,-99999.0,'11133222,11111222,99999999' 
TABS,ioos:station:wmo:42049:1,2009-03-03T11:30:00Z,28.3507,-96.0058,2.0,228.9001689,0.623698645,-99999.0,'11133222,11111222,99999999' 
TABS,ioos:station:wmo:42049:1,2009-03-03T12:00:00Z,28.3507,-96.0058,2.0,182.7924854,2.46292509,-99999.0,'11133222,11111222,99999999' 
TABS,ioos:station:wmo:42049:1,2009-03-03T12:30:00Z,28.3507,-96.0058,2.0,209.6828603,2.302086011,-99999.0,'11133222,11111222,99999999' 
TABS,ioos:station:wmo:42049:1,2009-03-03T13:00:00Z,28.3507,-96.0058,2.0,250.6725987,3.656036105,-99999.0,'11133222,11111222,99999999' 
TABS,ioos:station:wmo:42049:1,2009-03-03T13:30:00Z,28.3507,-96.0058,2.0,232.2441742,5.046602818,-99999.0,'11133222,11111222,99999999' 
TABS,ioos:station:wmo:42049:1,2009-03-03T14:00:00Z,28.3507,-96.0058,2.0,238.4071614,5.001199856,-99999.0,'11133222,11111222,99999999' 
TABS,ioos:station:wmo:42049:1,2009-03-03T14:30:00Z,28.3507,-96.0058,2.0,244.2274143,6.140830563,-99999.0,'11133222,11111222,99999999' 
TABS,ioos:station:wmo:42049:1,2009-03-03T15:00:00Z,28.3507,-96.0058,2.0,240.8462361,9.011603631,-99999.0,'11133222,11111222,99999999' 
TABS,ioos:station:wmo:42049:1,2009-03-03T15:30:00Z,28.3507,-96.0058,2.0,242.6948021,9.352015825,-99999.0,'11133222,11111222,99999999' 
TABS,ioos:station:wmo:42049:1,2009-03-03T16:00:00Z,28.3507,-96.0058,2.0,239.0112163,11.94487756,-99999.0,'11111222,11111222,99999999' 
TABS,ioos:station:wmo:42049:1,2009-03-03T16:30:00Z,28.3507,-96.0058,2.0,238.0110861,10.8352988,-99999.0,'11111222,11111222,99999999' 
TABS,ioos:station:wmo:42049:1,2009-03-03T17:00:00Z,28.3507,-96.0058,2.0,244.043348,10.94393439,-99999.0,'11111222,11111222,99999999' 
TABS,ioos:station:wmo:42049:1,2009-03-03T17:30:00Z,28.3507,-96.0058,2.0,245.8668849,11.27546895,-99999.0,'11111222,11111222,99999999' 
TABS,ioos:station:wmo:42049:1,2009-03-03T18:00:00Z,28.3507,-96.0058,2.0,241.0268678,12.24209949,-99999.0,'11111222,11111222,99999999' 
TABS,ioos:station:wmo:42049:1,2009-03-03T18:30:00Z,28.3507,-96.0058,2.0,243.1421435,10.51412859,-99999.0,'11111222,11111222,99999999' 
TABS,ioos:station:wmo:42049:1,2009-03-03T19:00:00Z,28.3507,-96.0058,2.0,238.4966041,12.93671133,-99999.0,'11111222,11111222,99999999' 
TABS,ioos:station:wmo:42049:1,2009-03-03T19:30:00Z,28.3507,-96.0058,2.0,249.2970801,15.10537984,-99999.0,'11111222,11111222,99999999' 
TABS,ioos:station:wmo:42049:1,2009-03-03T20:00:00Z,28.3507,-96.0058,2.0,236.269298,11.83175811,-99999.0,'11111222,11111222,99999999' 
TABS,ioos:station:wmo:42049:1,2009-03-03T20:30:00Z,28.3507,-96.0058,2.0,246.7022473,12.94552046,-99999.0,'11111222,11111222,99999999' 
TABS,ioos:station:wmo:42049:1,2009-03-03T21:00:00Z,28.3507,-96.0058,2.0,233.940501,10.60106127,-99999.0,'11111222,11111222,99999999' 
TABS,ioos:station:wmo:42049:1,2009-03-03T21:30:00Z,28.3507,-96.0058,2.0,246.424928,12.00166655,-99999.0,'11111222,11111222,99999999' 
TABS,ioos:station:wmo:42049:1,2009-03-03T22:00:00Z,28.3507,-96.0058,2.0,258.4649854,10.0019998,-99999.0,'11111222,11111222,99999999' 
TABS,ioos:station:wmo:42049:1,2009-03-03T22:30:00Z,28.3507,-96.0058,2.0,263.635628,10.64560003,-99999.0,'11111222,11111222,99999999' 
TABS,ioos:station:wmo:42049:1,2009-03-03T23:00:00Z,28.3507,-96.0058,2.0,274.4527225,9.017211321,-99999.0,'11133222,11111222,99999999' 
TABS,ioos:station:wmo:42049:1,2009-03-03T23:30:00Z,28.3507,-96.0058,2.0,239.8094734,6.224250959,-99999.0,'11133222,11111222,99999999' 
TABS,ioos:station:wmo:42049:1,2009-03-04T00:00:00Z,28.3507,-96.0058,2.0,220.5550731,8.120794296,-99999.0,'11133222,11111222,99999999' 
TABS,ioos:station:wmo:42049:1,2009-03-04T00:30:00Z,28.3507,-96.0058,2.0,236.0539709,8.703332695,-99999.0,'11133222,11111222,99999999' 
TABS,ioos:station:wmo:42049:1,2009-03-04T01:00:00Z,28.3507,-96.0058,2.0,231.0843639,7.004462863,-99999.0,'11133222,11111222,99999999' 
TABS,ioos:station:wmo:42049:1,2009-03-04T01:30:00Z,28.3507,-96.0058,2.0,249.8076892,5.156937075,-99999.0,'11133222,11111222,99999999' 
TABS,ioos:station:wmo:42049:1,2009-03-04T02:00:00Z,28.3507,-96.0058,2.0,264.1865527,6.12147858,-99999.0,'11133222,11111222,99999999' 
TABS,ioos:station:wmo:42049:1,2009-03-04T02:30:00Z,28.3507,-96.0058,2.0,299.6639788,6.122360656,-99999.0,'11133222,11111222,99999999' 
TABS,ioos:station:wmo:42049:1,2009-03-04T03:00:00Z,28.3507,-96.0058,2.0,337.3544904,3.40230804,-99999.0,'11133222,11111222,99999999' 
TABS,ioos:station:wmo:42049:1,2009-03-04T03:30:00Z,28.3507,-96.0058,2.0,331.9066273,3.185294335,-99999.0,'11133222,11111222,99999999' 
TABS,ioos:station:wmo:42049:1,2009-03-04T04:00:00Z,28.3507,-96.0058,2.0,114.362396,3.49084517,-99999.0,'11133222,11111222,99999999' 
TABS,ioos:station:wmo:42049:1,2009-03-04T04:30:00Z,28.3507,-96.0058,2.0,235.7385563,0.834865259,-99999.0,'11133222,11111222,99999999' 
TABS,ioos:station:wmo:42049:1,2009-03-04T05:00:00Z,28.3507,-96.0058,2.0,274.2195064,3.669945504,-99999.0,'11133222,11111222,99999999' 
TABS,ioos:station:wmo:42049:1,2009-03-04T05:30:00Z,28.3507,-96.0058,2.0,248.6834128,7.675063518,-99999.0,'11133222,11111222,99999999' 
TABS,ioos:station:wmo:42049:1,2009-03-04T06:00:00Z,28.3507,-96.0058,2.0,251.4187772,8.693129471,-99999.0,'11133222,11111222,99999999' 
TABS,ioos:station:wmo:42049:1,2009-03-04T06:30:00Z,28.3507,-96.0058,2.0,238.037716,6.98962803,-99999.0,'11133222,11111222,99999999' 
TABS,ioos:station:wmo:42049:1,2009-03-04T07:00:00Z,28.3507,-96.0058,2.0,232.3992617,5.490446248,-99999.0,'11133222,11111222,99999999' 
TABS,ioos:station:wmo:42049:1,2009-03-04T07:30:00Z,28.3507,-96.0058,2.0,239.5955611,6.145087469,-99999.0,'11133222,11111222,99999999' 
TABS,ioos:station:wmo:42049:1,2009-03-04T08:00:00Z,28.3507,-96.0058,2.0,269.2619077,4.66038625,-99999.0,'11133222,11111222,99999999' 
TABS,ioos:station:wmo:42049:1,2009-03-04T08:30:00Z,28.3507,-96.0058,2.0,277.6964546,3.733630941,-99999.0,'11133222,11111222,99999999' 
TABS,ioos:station:wmo:42049:1,2009-03-04T09:00:00Z,28.3507,-96.0058,2.0,284.1808801,4.816772779,-99999.0,'11133222,11111222,99999999' 
TABS,ioos:station:wmo:42049:1,2009-03-04T09:30:00Z,28.3507,-96.0058,2.0,273.150306,6.369623223,-99999.0,'11133222,11111222,99999999' 
TABS,ioos:station:wmo:42049:1,2009-03-04T10:00:00Z,28.3507,-96.0058,2.0,271.282945,5.361343115,-99999.0,'11133222,11111222,99999999' 
TABS,ioos:station:wmo:42049:1,2009-03-04T10:30:00Z,28.3507,-96.0058,2.0,63.54220566,4.780721703,-99999.0,'11133222,11111222,99999999' 
TABS,ioos:station:wmo:42049:1,2009-03-04T11:00:00Z,28.3507,-96.0058,2.0,70.56001063,5.408326913,-99999.0,'11133222,11111222,99999999' 
TABS,ioos:station:wmo:42049:1,2009-03-04T11:30:00Z,28.3507,-96.0058,2.0,98.70617973,4.360240819,-99999.0,'11133222,11111222,99999999' 
TABS,ioos:station:wmo:42049:1,2009-03-04T12:00:00Z,28.3507,-96.0058,2.0,111.2731157,13.09207776,-99999.0,'11111222,11111222,99999999' 
TABS,ioos:station:wmo:42049:1,2009-03-04T12:30:00Z,28.3507,-96.0058,2.0,104.7878939,11.83190602,-99999.0,'11111222,11111222,99999999' 
TABS,ioos:station:wmo:42049:1,2009-03-04T13:00:00Z,28.3507,-96.0058,2.0,117.9432934,13.57238741,-99999.0,'11111222,11111222,99999999' 
TABS,ioos:station:wmo:42049:1,2009-03-04T13:30:00Z,28.3507,-96.0058,2.0,109.0976018,15.03763612,-99999.0,'11111222,11111222,99999999' 
TABS,ioos:station:wmo:42049:1,2009-03-04T14:00:00Z,28.3507,-96.0058,2.0,126.584657,16.47620405,-99999.0,'11111222,11111222,99999999' 
TABS,ioos:station:wmo:42049:1,2009-03-04T14:30:00Z,28.3507,-96.0058,2.0,134.0634966,14.27839277,-99999.0,'11111222,11111222,99999999' 
TABS,ioos:station:wmo:42049:1,2009-03-04T15:00:00Z,28.3507,-96.0058,2.0,128.9646265,16.14078685,-99999.0,'11111222,11111222,99999999' 
TABS,ioos:station:wmo:42049:1,2009-03-04T15:30:00Z,28.3507,-96.0058,2.0,137.6464998,18.37609316,-99999.0,'11111222,11111222,99999999' 
TABS,ioos:station:wmo:42049:1,2009-03-04T16:00:00Z,28.3507,-96.0058,2.0,143.1299781,16.0,-99999.0,'11111222,11111222,99999999' 